Regional Weather Roundup
Issued by NWS

Home | Current Version | Previous Version | Graphics & Text | Print | Product List | Glossary On
Versions: 1 2 3 4 5 6 7 8 9 10 11 12 13 14 15 16 17 18 19 20 21 22 23 24 25 26 27
000
ASUS45 KBOU 281707
RWRCO

WEATHER ROUNDUP FOR COLORADO
NATIONAL WEATHER SERVICE DENVER/BOULDER CO
1000 AM MST TUE FEB 28 2017

NOTE: "FAIR" INDICATES FEW OR NO CLOUDS BELOW 12000 FEET WITH NO
SIGNIFICANT WEATHER AND/OR OBSTRUCTIONS TO VISIBILITY.

COZ001>005-013-030-031-281800-
...NORTHWEST COLORADO...

CITY           SKY/WX    TMP DP  RH WIND       PRES   REMARKS
CRAIG          CLOUDY    19  13  77 S3        29.82R
HAYDEN         PTSUNNY   18  10  73 SW3       29.79R
MEEKER         CLOUDY    22  17  81 SW5       29.79R WCI  16
MOUNT WERNER   NOT AVBL
STEAMBOAT SPGS CLOUDY    17  13  83 CALM      29.77R
WALDEN         NOT AVBL
$$

COZ006>008-011-281800-
...WEST CENTRAL VALLEYS...

CITY           SKY/WX    TMP DP  RH WIND       PRES   REMARKS
GRAND JUNCTION PTSUNNY   31  28  89 CALM      29.82R
MONTROSE       HVY SNOW  27  26  96 NW5       29.82R VSB 1/4 WCI  22
EAGLE          NOT AVBL
RIFLE          CLOUDY    29  26  89 CALM      29.80R
DELTA          CLOUDY    35  29  79 W6        29.76R WCI  29
NUCLA          FLURRIES  32  30  93 W7        29.82R WCI  26
$$

COZ017>023-064>068-281800-
...SOUTHWEST COLORADO...

CITY           SKY/WX    TMP DP  RH WIND       PRES   REMARKS
DURANGO          N/A     31  27  85 SW14      29.77R WCI  21
CORTEZ         CLOUDY    33  32  96 CALM      29.81R
PAGOSA SPRINGS CLOUDY    32  30  91 SW13      29.75R WCI  22
TELLURIDE      LGT SNOW  26  22  88 NW3       29.76R
WOLF CREEK PAS CLOUDY    16  16 100 SW17G25   29.74R WCI   0
$$

COZ009-010-012-014-032>034-037-058>063-281800-
...CENTRAL COLORADO...

CITY           SKY/WX    TMP DP  RH WIND       PRES   REMARKS
ASPEN          LGT SNOW  22  19  89 N7        29.70R VSB 1   WCI  13
BUENA VISTA    CLOUDY    32  21  64 SE5       29.63F WCI  27
COPPER MTN     SNOW      18  12  79 MISG      29.60S VSB 1/2
BERTHOUD PASS  SNOW       5  -4  66 NW10G17   29.59S VSB<1/4 WCI -10
COTTONWOOD PAS CLOUDY    28  19  69 CALM      29.63F HAZE
GUNNISON       MIX PCPN  28  24  85 S8        29.70S WCI  20
KREMMLING      LGT SNOW  27  21  80 CALM      29.73R
LEADVILLE      CLOUDY    20  16  84 S7        29.61S WCI  11
MONARCH PASS   CLOUDY    14  12  92 SW22G35   29.74S WCI  -4
SALIDA         CLOUDY    37  18  45 SW9       29.73R
SUNLIGHT       NOT AVBL
WILKERSON PASS CLOUDY    19  18  93 SW8G16    29.65S WCI   9
$$

COZ069>075-281800-
...SAN LUIS VALLEY/SANGRE DE CRISTO MOUNTAINS...

CITY           SKY/WX    TMP DP  RH WIND       PRES   REMARKS
ALAMOSA        PTSUNNY   37  31  78 NW12      29.67R
LA VETA PASS   CLOUDY    27  21  80 S39G60    29.65R WCI   8
SAGUACHE       MIX PCPN  32  27  80 NW10      29.69S WCI  24
$$

COZ035-036-038>040-281800-
...NORTHERN COLORADO FRONT RANGE...

CITY           SKY/WX    TMP DP  RH WIND       PRES   REMARKS
DENVER INTL AP CLOUDY    34  16  47 SE7       29.69S WCI  28
DMNS CITY PARK   N/A     34  14  43 E9G18     29.69S WCI  26
AURORA         CLOUDY    32  15  49 SE7       29.69S WCI  25
FRONT RANGE AP CLOUDY    34  18  51 E8        29.70S WCI  27
ERIE MUNI ARPT PTSUNNY   37  17  42 S8        29.69S
BOULDER MUN AP FAIR      37  18  44 E7        29.67S
CENTENNIAL     CLOUDY    31  14  49 SE9       29.67F WCI  23
BROOMFIELD     CLOUDY    36  18  48 SE9       29.68S
FORT COLLINS   FAIR      35  18  49 CALM      29.70S
LONGMONT       NOT AVBL
$$

COZ041-046-047-076>085-087-088-281800-
...PIKES PEAK/PALMER DIVIDE AND SOUTHERN FOOTHILLS...

CITY           SKY/WX    TMP DP  RH WIND       PRES   REMARKS
COLO. SPRINGS  FLURRIES  33  16  49 S10       29.71R WCI  25
A. F. ACADEMY  LGT SNOW  28  22  78 S8        29.68S WCI  20
SCHRIEVER AFB  CLOUDY    34  13  42 S3G21     29.70S
ELLICOTT       CLOUDY   N/A N/A N/A MISG      29.68S
FALCON         CLOUDY    31  12  46 SE7       29.70S WCI  24
FORT CARSON    PTSUNNY   32  19  59 S5        29.70S WCI  27
LIMON          CLOUDY   N/A N/A N/A NE6       29.71R
MONUMENT HILL  LGT SNOW  27  21  80 SE12      29.67F WCI  16
TRINIDAD       FAIR      41  21  44 NE10      29.65F
$$

COZ042>045-048>051-090-091-281800-
...NORTHEAST COLORADO...

CITY           SKY/WX    TMP DP  RH WIND       PRES   REMARKS
GREELEY ARPT   FAIR      35  17  47 E3        29.72F
AKRON          CLOUDY    32  10  40 N24       29.70S WCI  19
BURLINGTON     CLOUDY    37  10  32 N15       29.73R
WRAY           NOT AVBL
STERLING       CLOUDY    34  18  51 N8        29.73S WCI  27
HOLYOKE        FAIR      37   9  30 N20       29.71F
FORT MORGAN    CLOUDY    33  16  51 N5        29.72F WCI  28
$$

COZ086-089-092>099-281800-
...SOUTHEAST COLORADO...

CITY           SKY/WX    TMP DP  RH WIND       PRES   REMARKS
PUEBLO         CLOUDY    39  14  36 VRB5      29.72S
LA JUNTA       FAIR      43  16  33 NE10      29.72F
LAMAR          FAIR      46  14  27 NE18G24   29.69F
SPRINGFIELD      N/A     47  25  42 E13       29.66F
$$




USA.gov is the U.S. government's official web portal to all federal, state and local government web resources and services.